Regional Weather Roundup
Issued by NWS Charleston, SC

Current Version | Previous Version | Graphics & Text | Print | Product List | Glossary On
Versions: 1 2 3 4 5 6 7 8 9 10 11 12 13 14 15 16 17 18 19 20 21 22 23 24 25 26 27 28 29 30 31 32 33 34 35 36 37 38 39 40 41 42 43 44 45 46 47 48 49 50
000 ASUS42 KCHS 031327 RWRCHS REGIONAL WEATHER ROUNDUP NATIONAL WEATHER SERVICE CHARLESTON SC 900 AM EDT FRI JUL 03 2015 NOTE: "FAIR" INDICATES FEW OR NO CLOUDS BELOW 12,000 FEET WITH NO SIGNIFICANT WEATHER AND/OR OBSTRUCTIONS TO VISIBILITY. NOT ALL STATIONS ARE QUALITY CONTROLLED BY THE NATIONAL WEATHER SERVICE. USE DATA WITH CAUTION...ESPECIALLY DEWPOINT OBSERVATIONS. SCZ027-030-031-034>040-042>050-031400- ...SOUTHEAST SOUTH CAROLINA... CITY SKY/WX TMP DP RH WIND PRES REMARKS N CHARLESTON LGT RAIN 74 71 91 W10 30.05R WATERFRONT PAR N/A 73 72 96 W6 30.01R MOUNT PLEASANT HVY RAIN 75 72 88 SW13 30.05R JOHNS ISLAND PTSUNNY 75 72 88 SW6G15 30.06R PINOPOLIS NOT AVBL MONCKS CORNER PTSUNNY 77 72 83 SW10G17 30.02S SUMMERVILLE LGT RAIN 73 73 100 SW6 30.02F BEAUFORT MCAS MOSUNNY 77 71 82 SW8 30.04F BEAUFORT ARPT FAIR 79 73 83 SW13 30.04S HILTON HEAD IS MOSUNNY 79 72 78 SW12 30.06R WALTERBORO CLOUDY 72 72 100 SW8 30.03F ALLENDALE CLOUDY 72 72 100 S3 30.01F ...SOUTHERN MIDLANDS AND PEE DEE... CITY SKY/WX TMP DP RH WIND PRES REMARKS GEORGETOWN NOT AVBL KINGSTREE NOT AVBL ORANGEBURG LGT RAIN 72 69 90 SW12 30.00F BARNWELL FAIR 72 72 100 SW8 30.02F AIKEN NOT AVBL MANNING PTSUNNY 72 72 100 SW8 30.00S COLUMBIA PTSUNNY 79 69 71 SW16G24 29.96S SUMTER PTSUNNY 75 71 88 SW12 29.96S FLORENCE CLOUDY 76 72 87 SW9 29.98S MYRTLE BEACH PTSUNNY 73 70 88 W9 30.02R N MYRTLE BEACH CLOUDY 74 70 87 W7 30.00R $$ GAZ063-065-086>088-099>101-113>116-118-119-134>141-150-031400- ...SOUTHEAST GEORGIA... CITY SKY/WX TMP DP RH WIND PRES REMARKS SAVANNAH ARPT MOSUNNY 77 71 82 W10 30.05S HUNTER AAF SUNNY 79 73 81 SW12 30.03S FORT STEWART MOSUNNY 77 71 82 SW8 30.04R STATESBORO NOT AVBL SYLVANIA CLOUDY 76 74 93 CALM 30.06R CLAXTON FAIR 79 73 83 W5G16 30.05S ...CSRA...CENTRAL AND FAR SOUTHEAST GEORGIA... CITY SKY/WX TMP DP RH WIND PRES REMARKS THOMSON CLOUDY 77 74 92 SW6 30.05R AUGUSTA-BUSH LGT RAIN 71 69 93 S9 29.98F AUGUSTA-DANIEL CLOUDY 72 68 87 S8 29.99F SWAINSBORO CLOUDY N/A N/A N/A SW6 30.05R VIDALIA PTSUNNY 77 72 83 SW8 30.05S EASTMAN FAIR 80 76 86 W7G16 30.07S HAZLEHURST FAIR 80 75 82 SW9 30.05S ALMA MOSUNNY 77 72 84 SW10 30.07S WAYCROSS MOSUNNY 82 77 85 W8 30.08S HX 90 JESUP FAIR 81 75 83 W9 30.07F BAXLEY FAIR 79 73 83 W8 30.07S BRUNSWICK SUNNY 79 72 78 W9 30.09S SAINT SIMONS SUNNY 77 70 79 W12G18 30.08R $$ SCZ027-028-034-036>038-045-046-048>050-GAZ119-141-031400- ...LAKE AND SUPPLEMENTAL COASTAL OBSERVATIONS... STATION/POSITION TIME TEMP WIND PRES WAVE SWELL AIR SEA DIR/SP/G HT/PER HT/PER/DIR (UTC) (F) (DEG/KT/KT) (MB) (FT/S) (FT/S/D) UPR LAKE MARION NOT AVBL WINYAH BAY 1245 74 240/ 10 1015.0S LAKE MURRAY 1200 76 220/ 10/ 14 1013.9R ACE BASIN NERRS NOT AVBL FORT PULASKI 1300 80 83 250/ 11/ 16 1018.0R SAPELO ISLAND 1300 78 250/ 13 1018.0S $$ ANZ835-935-AMZ111-154-330-350-352-354-370-450-454-472-031400- ...C-MAN AND BUOY OBSERVATIONS... STATION/POSITION TIME TEMP WIND PRES WAVE SWELL AIR SEA DIR/SP/G HT/PER HT/PER/DIR (UTC) (F) (DEG/KT/KT) (MB) (FT/S) (FT/S/D) BUOY 41004 1250 80 81 240/ 19/ 23 1016.4R 5/ 5 2/14 BUOY 41008 1250 77 78 240/ 14/ 17 1018.3R 3/ 8 2/120/ 8 FOLLY BEACH CMAN 1300 74 240/ 6/ 8 1017.3R CAPERS NEARSHORE 1208 79 250/ 21/ 29 1016.6R FRIPP NEARSHORE NOT AVBL STATION/POSITION TIME TEMP WIND PRES WAVE SWELL AIR SEA DIR/SP/G HT/PER HT/PER/DIR (UTC) (F) (DEG/KT/KT) (MB) (FT/S) (FT/S/D) 5E ST. MARYS GA 1221 76 N/A 2/ 8 FRYING PAN BUOY 1250 80 79 230/ 17/ 21 1016.3R 5/ 7 2/170/ 8 BUOY 41025 1250 77 83 270/ 14/ 17 1014.9R 6/ 7 3/210/ 7 CAPE LOOKOUT NC 1300 78 270/ 16/ 19 1015.3R BUOY 41002 1250 82 80 240/ 16/ 17 1018.9R 6/ 6 3/140/ 8 BUOY 41010 1220 83 84 210/ 10/ 12 1019.3R ST AUGUSTINE FL 1300 80 73 250/ 6/ 7 1020.0R $$

USA.gov is the U.S. government's official web portal to all federal, state and local government web resources and services.